Theta_e
302 304 303 302 302 302 299 299 295 299 298 308 314 316 318 319 326 329 328 327 330 332 339 345 349 350 349 349 350 352 349 348 352 352 351 350 350 351 351 351 350 350 351 351
303 307 304 302 303 304 303 302 302 301 300 315 315 317 318 318 324 324 330 331 333 340 343 348 350 351 351 351 353 355 349 349 353 351 350 349 351 350 349 350 350 352 351 350
296 305 306 301 301 303 302 304 302 299 302 315 314 316 317 319 326 325 325 330 339 343 346 350 353 354 353 356 355 355 352 352 355 353 353 352 351 351 350 350 351 351 350 352
298 302 293 306 311 311 308 308 308 306 307 317 315 318 322 326 334 335 335 336 336 340 346 351 355 356 357 360 355 354 354 354 355 352 352 354 353 351 351 351 351 350 350 351
296 296 302 307 312 309 305 306 312 310 312 312 320 322 319 331 338 338 335 332 332 336 346 352 355 357 360 358 356 355 353 353 355 353 351 353 352 352 352 351 351 350 350 350
300 295 295 305 312 315 312 300 312 314 314 310 319 308 323 338 341 341 339 337 335 343 352 353 356 361 359 357 356 354 355 354 356 355 353 352 352 352 352 353 351 349 348 349
301 298 303 312 313 318 300 301 315 318 321 317 319 324 334 339 339 341 341 343 344 346 347 349 352 361 359 359 357 359 358 357 356 355 354 354 353 354 353 348 348 347 345 346
303 300 297 316 312 305 310 314 317 321 323 324 331 335 335 336 336 337 338 341 346 348 348 349 354 355 353 354 358 358 358 357 355 355 356 356 354 350 339 338 338 341 343 343
304 303 312 315 314 317 319 319 322 322 322 334 334 333 335 334 335 336 337 338 345 344 341 342 344 348 347 348 352 355 357 354 356 355 352 347 342 337 336 338 335 335 338 340
308 311 314 317 320 320 322 321 326 328 325 326 331 335 334 334 335 336 337 339 341 344 341 344 346 346 344 348 350 348 350 349 349 341 335 334 336 337 335 336 329 331 335 336
307 312 314 317 321 320 321 323 325 326 324 327 324 332 334 334 333 334 334 339 340 340 342 341 343 342 344 344 343 343 344 345 345 340 334 331 331 332 331 330 328 330 333 331
306 315 314 314 320 321 322 322 323 322 320 321 327 335 335 335 336 336 337 338 337 337 339 342 344 343 341 341 341 338 338 339 335 338 339 336 334 334 318 317 314 312 316 325
314 320 318 319 320 326 322 325 325 325 323 322 332 338 338 336 336 335 338 337 337 337 338 340 339 338 339 339 338 336 334 336 337 336 336 334 337 336 332 324 308 306 304 307
321 322 319 321 318 323 322 324 325 326 324 328 335 337 335 333 337 336 335 335 337 336 335 337 336 335 338 337 337 335 335 320 333 335 335 333 334 333 332 330 328 325 312 312
322 324 318 321 322 324 325 326 320 321 328 329 331 335 335 335 333 332 333 333 333 332 332 334 332 332 337 338 339 338 339 336 336 336 334 330 333 333 333 333 333 329 319 310
318 320 320 321 322 322 321 324 323 325 327 328 329 334 334 332 331 331 332 332 330 327 327 328 327 331 336 338 338 337 334 331 332 334 333 333 333 332 334 329 327 329 329 326
319 320 321 319 321 323 324 322 325 324 329 329 330 331 332 330 328 328 328 329 329 328 327 326 331 333 334 336 336 335 333 331 330 331 333 332 328 327 328 326 329 326 322 313
324 323 322 322 322 322 324 322 323 325 325 326 328 328 328 327 326 327 326 326 327 327 327 328 329 331 334 335 333 333 331 331 330 330 330 332 329 330 328 330 329 328 320 310
325 326 327 328 326 326 326 323 321 324 325 325 324 325 328 329 326 325 326 326 324 322 324 330 329 329 330 328 329 330 332 332 330 329 329 325 328 328 327 327 327 328 323 314
325 326 327 328 331 331 327 327 324 321 322 325 323 326 327 327 325 325 327 325 327 326 328 328 330 328 327 326 330 325 329 328 327 328 326 329 326 326 325 317 324 326 326 323
323 324 326 326 326 331 332 326 319 318 317 318 319 325 327 328 327 328 325 322 325 325 327 328 323 320 323 318 319 320 326 324 324 327 324 327 327 326 325 325 325 325 326 326
322 323 325 326 326 328 331 330 323 319 319 321 326 328 327 324 324 325 327 325 327 322 325 324 317 319 317 322 317 317 316 315 315 315 314 314 315 315 317 319 322 325 325 324
322 324 324 324 325 327 330 330 328 326 326 328 328 327 326 325 325 319 322 325 322 315 318 315 316 318 321 320 320 318 317 318 317 317 317 317 316 315 315 315 315 320 317 314
321 322 323 326 328 328 325 326 328 330 330 328 328 328 327 324 321 320 317 313 312 315 315 313 314 315 316 322 320 319 319 317 315 315 317 312 316 318 317 316 316 316 316 314
321 323 325 325 325 327 326 326 326 327 326 326 328 329 325 319 317 317 317 316 313 316 316 313 315 315 315 320 318 318 319 318 317 317 314 315 318 318 319 315 314 314 316 317
322 324 324 324 323 321 324 324 322 323 323 323 325 323 320 318 317 317 318 316 316 315 316 315 313 312 315 319 321 321 321 319 317 316 316 316 315 316 316 316 316 315 315 314
323 312 323 320 321 321 321 319 318 316 318 323 321 321 318 318 318 318 317 317 318 317 319 318 316 317 319 319 317 315 317 316 311 314 313 311 310 311 310 311 312 314 313 311
Wind_Speed
11 11 15 15 15 10 11 12 10 13 8 10 2 3 2 15 11 9 9 9 9 9 10 9 9 8 8 8 8 7 8 8 10 9 8 8 8 8 8 8 7 7 7 7
8 12 14 21 16 16 14 8 12 9 12 10 6 9 12 10 5 9 9 9 9 12 13 13 12 9 8 8 7 6 7 7 9 9 8 8 9 10 9 9 8 7 8 8
7 8 16 11 11 11 10 12 6 11 7 11 11 13 12 6 1 7 8 8 6 13 14 12 12 11 8 8 7 7 7 6 7 8 8 7 10 8 8 8 8 7 7 7
7 6 5 9 10 9 12 15 15 12 7 17 13 15 9 12 12 6 7 8 7 4 7 10 11 10 9 8 8 7 7 5 6 7 6 6 7 7 5 4 5 6 6 7
1 4 10 16 14 6 5 17 18 10 19 11 11 16 15 24 18 7 6 5 4 2 7 7 12 11 11 8 9 8 7 6 6 7 6 5 6 7 5 5 4 4 3 6
0 1 6 8 12 4 6 9 10 19 23 10 9 5 5 15 13 8 7 3 6 7 7 9 7 10 11 9 9 9 9 9 8 8 7 7 7 7 5 4 4 3 5 6
6 5 7 8 18 13 1 10 26 19 20 24 13 9 12 16 11 8 6 10 9 10 11 9 7 8 11 11 12 13 11 10 8 8 9 8 7 5 5 2 2 5 6 6
3 8 15 13 9 4 13 24 20 22 21 22 19 21 17 19 10 9 8 10 10 11 11 11 11 10 8 6 3 6 8 8 8 7 6 6 7 3 8 11 6 4 3 3
8 7 5 4 8 4 11 10 11 8 15 10 23 22 20 16 14 10 10 7 8 11 10 8 8 8 9 6 7 7 4 4 5 6 3 4 6 8 6 8 5 5 3 5
2 8 19 14 1 6 1 10 10 3 11 15 14 17 15 15 14 10 8 7 7 9 8 7 7 8 6 6 6 7 7 7 6 6 5 5 5 5 4 5 4 4 5 3
5 9 11 14 9 4 7 11 9 9 19 35 35 15 15 13 11 8 7 8 8 8 7 7 7 7 6 6 6 6 7 4 4 5 5 4 3 4 4 2 2 4 4 5
4 9 4 8 12 12 7 8 8 10 18 38 30 14 16 13 9 8 8 6 7 7 7 7 8 7 6 7 6 6 6 4 3 3 4 5 4 3 3 9 9 11 10 5
6 12 4 13 9 8 15 9 11 13 24 40 25 10 14 12 7 10 8 8 8 8 7 7 7 7 5 6 5 4 4 4 3 3 3 3 4 5 4 3 0 3 2 4
15 9 9 5 3 15 21 20 10 16 21 26 8 12 12 9 11 10 9 8 7 8 7 7 7 6 4 3 3 1 5 2 2 3 3 3 3 3 2 3 3 3 3 1
17 17 9 6 7 15 16 17 19 19 5 6 6 13 12 13 10 8 7 7 7 8 6 6 6 6 5 3 1 2 4 3 1 3 3 2 1 0 2 3 4 4 2 1
17 13 10 10 13 16 17 12 7 5 6 4 7 12 10 10 8 8 7 5 7 6 5 4 4 3 5 6 4 4 4 5 3 3 2 2 1 2 4 3 2 3 3 3
5 4 4 10 12 12 11 9 10 14 11 6 10 11 10 9 8 7 7 7 7 7 5 3 1 1 1 5 4 4 4 3 2 1 1 4 3 3 3 1 3 4 3 2
3 4 4 5 6 4 4 6 4 9 10 17 13 9 7 9 8 9 8 5 5 5 4 5 1 2 4 3 4 2 3 3 2 2 2 3 2 2 2 2 1 4 4 2
16 5 5 4 6 6 6 7 5 6 12 13 13 3 6 7 8 8 8 7 5 5 3 4 2 3 4 3 3 2 2 4 3 2 2 2 1 1 1 2 3 4 5 4
11 9 10 10 10 6 7 6 9 12 8 9 2 5 7 6 7 6 8 5 5 4 3 4 0 4 4 4 2 3 2 3 4 3 2 4 4 3 3 3 2 3 2 4
9 10 10 8 10 12 12 12 11 9 10 16 10 6 7 7 5 5 8 5 4 4 3 4 5 4 4 3 2 2 3 3 5 2 2 3 3 3 3 3 3 1 1 0
6 6 9 10 7 9 13 13 15 10 6 2 8 10 9 8 4 2 4 7 3 6 2 2 3 6 5 8 4 6 6 6 5 5 5 4 4 4 3 2 3 3 3 1
6 6 5 7 10 7 13 6 13 15 14 11 9 10 8 6 5 3 4 5 5 4 4 4 4 7 9 6 6 6 6 7 6 5 4 3 4 4 4 5 5 4 5 5
8 7 7 6 8 5 6 2 6 6 13 8 8 6 9 7 3 4 5 7 9 8 5 6 6 10 9 3 5 4 5 5 3 2 4 3 3 3 5 4 4 4 5 6
8 6 7 8 8 6 7 10 11 4 1 7 7 6 5 7 8 6 5 5 9 5 3 3 6 6 3 2 2 3 4 4 3 2 4 4 5 5 4 4 5 5 6 8
5 4 3 5 4 3 5 6 6 4 4 3 2 4 4 8 7 7 6 6 6 5 4 4 3 2 3 2 1 6 4 5 7 8 8 9 9 9 10 11 12 9 8 8
2 3 4 3 4 2 4 7 8 8 8 3 6 1 8 7 7 6 7 5 4 3 3 5 3 4 1 5 7 6 8 9 9 9 9 9 9 10 10 10 10 9 9 9
Wind_Direction
279 282 291 286 281 264 219 225 224 261 268 205 141 45 23 313 160 141 136 144 145 151 149 141 139 139 142 148 156 152 160 165 162 163 161 168 172 176 178 180 192 195 185 191
316 313 309 304 292 291 282 246 231 243 268 165 172 95 331 289 115 149 165 177 157 162 154 150 153 152 150 152 156 145 166 167 154 161 170 177 179 188 183 186 195 191 187 194
273 318 340 317 273 284 285 279 241 231 208 186 186 159 184 254 86 108 102 92 136 161 159 153 152 148 152 151 151 146 158 158 152 162 175 175 178 180 191 188 187 192 197 190
263 352 253 252 311 301 304 302 306 321 189 191 188 172 133 97 347 51 85 74 64 135 164 156 150 150 145 141 144 141 149 143 150 164 173 167 165 186 197 197 198 194 207 202
210 254 290 309 290 339 15 301 307 304 306 183 166 129 159 159 181 143 83 75 67 7 170 152 149 152 152 143 146 145 159 167 168 175 186 192 175 177 173 175 187 214 191 193
279 208 282 300 308 4 328 283 328 356 333 318 164 114 184 125 115 110 105 104 98 34 69 111 133 144 145 152 153 165 175 182 181 177 176 184 178 180 179 171 196 214 242 236
246 254 255 12 332 324 94 308 332 341 314 322 207 171 152 125 111 128 123 89 78 69 68 60 56 130 151 160 176 183 183 179 181 179 171 184 185 182 176 183 345 306 284 282
205 217 249 25 6 40 311 306 305 316 315 288 131 133 129 120 122 108 98 91 79 73 63 47 44 70 63 57 274 185 175 163 168 177 180 193 191 146 97 113 145 145 279 278
182 231 290 265 218 257 282 272 287 318 349 277 135 132 137 141 130 120 104 86 95 94 79 57 53 63 67 31 28 42 120 157 162 173 173 70 99 137 157 164 178 176 198 223
69 254 246 257 202 67 37 276 294 332 336 323 289 129 127 120 112 106 107 112 90 104 102 85 76 59 67 55 57 54 65 73 82 97 107 112 130 153 205 198 178 152 214 185
281 307 311 294 298 349 291 278 245 60 7 299 283 108 102 88 82 93 88 84 84 100 113 115 99 83 62 65 55 63 70 80 117 129 130 146 153 161 179 270 174 193 205 189
235 286 249 286 286 290 236 127 79 95 241 271 294 92 91 87 81 72 82 105 96 89 100 94 102 95 81 67 61 58 54 49 44 109 157 164 164 187 227 231 197 201 195 175
239 242 219 256 294 295 261 130 163 152 223 261 266 104 96 92 92 96 79 72 79 79 66 88 107 103 82 85 70 69 68 35 20 49 53 111 169 179 182 220 129 31 40 296
221 224 250 247 192 281 301 278 210 210 240 223 148 118 111 97 93 91 91 101 88 76 68 88 85 77 83 81 120 152 115 108 52 76 64 54 54 60 82 141 175 149 95 198
214 209 190 194 317 257 281 249 251 250 171 140 119 120 117 114 110 109 107 101 96 89 69 72 77 63 3 23 122 129 116 124 98 100 95 126 159 234 86 59 110 132 125 31
207 208 186 182 221 260 260 305 274 207 164 130 93 98 102 106 119 129 128 94 119 100 93 78 80 7 353 351 9 141 107 121 98 138 164 225 118 71 126 128 147 136 109 122
175 248 107 170 207 206 241 326 15 17 13 12 132 120 127 127 118 102 88 104 124 127 140 111 95 106 291 307 320 130 142 139 128 289 125 82 67 86 86 113 162 123 134 106
345 325 306 308 311 293 137 109 112 76 19 24 326 106 119 127 123 117 115 110 91 113 109 150 125 331 323 313 28 65 121 152 112 87 67 83 30 100 211 215 196 148 136 132
305 317 294 290 279 285 303 157 131 121 109 100 320 257 113 111 118 122 132 134 150 134 190 137 163 264 278 97 30 317 131 118 109 127 150 136 151 97 97 46 44 74 134 142
343 354 346 345 348 322 239 108 121 114 118 85 224 245 111 106 116 125 101 109 151 160 158 132 318 6 3 129 70 290 203 159 161 164 149 167 129 142 113 96 69 51 95 175
348 339 337 346 336 324 307 149 139 143 160 173 183 217 132 123 132 128 122 132 168 134 159 100 73 26 72 2 310 281 159 115 80 150 40 90 63 110 126 140 132 156 228 349
322 332 342 338 326 306 313 175 163 161 151 246 208 126 120 120 142 194 168 155 157 147 158 65 79 39 8 345 49 84 75 73 69 57 58 88 75 54 97 138 164 195 218 173
314 308 337 331 323 325 324 164 170 170 175 182 146 132 132 144 166 135 124 126 137 167 125 124 98 55 47 59 57 69 79 71 60 37 23 50 85 57 40 18 16 58 44 37
314 316 327 321 324 338 336 123 355 129 117 127 128 150 150 155 130 106 98 123 143 141 148 157 119 70 53 37 83 80 91 101 83 47 30 34 92 67 59 76 59 47 47 34
294 305 336 21 12 358 97 118 123 142 230 131 154 198 188 124 133 153 146 137 145 131 125 103 70 56 28 8 136 147 139 140 130 92 49 38 59 68 67 51 41 29 28 31
317 7 18 56 22 54 123 117 124 93 34 288 176 198 137 124 139 132 139 160 173 166 168 157 173 217 258 282 324 40 23 63 55 38 50 53 51 46 39 37 52 44 36 35
342 32 77 51 37 26 108 114 106 86 44 81 278 247 137 141 152 138 147 175 196 200 202 178 164 209 72 85 77 83 84 82 78 70 67 57 48 43 50 45 48 41 31 30